Regional Weather Roundup
Issued by NWS

Home | Current Version | Previous Version | Text Only | Print | Product List | Glossary On
Versions: 1 2 3 4 5 6 7 8 9 10 11 12 13 14 15 16 17 18 19 20 21 22 23 24 25 26 27 28 29 30 31 32 33 34 35 36 37 38 39 40 41 42 43 44 45 46 47 48 49 50
000
ASUS43 KMKX 231111
RWRWI

WISCONSIN REGIONAL WEATHER ROUNDUP
NATIONAL WEATHER SERVICE MILWAUKEE/SULLIVAN WI
600 AM CDT TUE MAY 23 2017

NOTE: "FAIR" INDICATES FEW OR NO CLOUDS BELOW 12,000 FEET WITH NO
SIGNIFICANT WEATHER AND/OR OBSTRUCTIONS TO VISIBILITY.

WIZ001-002-006>008-014>016-023>028-231200-
NORTHWEST WISCONSIN

CITY           SKY/WX    TMP DP  RH WIND       PRES   REMARKS
SUPERIOR ARPT  NOT AVBL
ASHLAND        CLOUDY    43  42  97 NW3       29.82S
HAYWARD        LGT RAIN  43  41  93 S3        29.83R
SIREN          CLOUDY    45  44  97 CALM      29.82S
CUMBERLAND     DRIZZLE   45  43  93 CALM      29.81F
RICE LAKE      DRIZZLE   47  46  95 N3        29.83S
CHETEK         RAIN      47  47  99 CALM      29.82S
LADYSMITH      LGT RAIN  46  45  95 CALM      29.83S
EAU CLAIRE     LGT RAIN  50  47  89 N6        29.79R
MENOMONIE      CLOUDY    49  48  94 N6        29.80S
NEW RICHMOND   CLOUDY    47  46  97 CALM      29.81S
OSCEOLA        CLOUDY    48  48 100 CALM      29.83F
$$

WIZ003>005-009-010-017-018-231200-
NORTH CENTRAL WISCONSIN

CITY           SKY/WX    TMP DP  RH WIND       PRES   REMARKS
MANITOWISH WTR CLOUDY    39  39 100 CALM      29.81S
ARBOR VITAE    DRIZZLE   43  41  95 CALM      29.81R
WOODRUFF       DRIZZLE   43  41  95 CALM      29.81R
RHINELANDER    LGT RAIN  46  44  93 CALM      29.81R
EAGLE RIVER    CLOUDY    42  42 100 CALM      29.81S
LAND O LAKES   FOG       42  42 100 CALM      29.83S VSB 3/4
PHILLIPS       CLOUDY    43  43 100 CALM      29.80S
TOMAHAWK       CLOUDY    43  42  97 CALM      29.81S
MEDFORD        CLOUDY    46  44  92 CALM      29.79R
MERRILL        CLOUDY    45  45 100 N3        29.81R
$$

WIZ029-030-035-036-043>047-231200-
CENTRAL WISCONSIN

CITY           SKY/WX    TMP DP  RH WIND       PRES   REMARKS
WAUSAU         CLOUDY    47  46  97 E3        29.78R
MOSINEE        CLOUDY    46  46 100 E7        29.80R
MARSHFIELD     CLOUDY    48  46  93 E6        29.78R
STEVENS POINT  CLOUDY    47  46  93 E10       29.79R
WAUPACA        CLOUDY    52  47  85 CALM      29.78S
WAUTOMA        CLOUDY    51  49  92 NE3       29.78R
WISC RAPIDS    CLOUDY    50  46  86 E8        29.78R
CAMP DOUGLAS   FOG       45  45 100 CALM      29.77R VSB<1/4
$$

WIZ011>013-019>022-031-037>040-048>050-231200-
NORTHEAST WISCONSIN

CITY           SKY/WX    TMP DP  RH WIND       PRES   REMARKS
ANTIGO         CLOUDY    46  44  95 E5        29.81R
SHAWANO        CLOUDY    51  48  88 E5        29.80S
OCONTO         CLOUDY    47  46  97 CALM      29.81R
STURGEON BAY   CLOUDY    47  44  90 SE6       29.82R
GREEN BAY      CLOUDY    54  45  71 E7        29.79R
MANITOWOC      CLOUDY    48  44  86 E3        29.79S
APPLETON       MOCLDY    52  43  71 E6        29.77S
CLINTONVILLE   CLOUDY    50  46  87 NE5       29.79S
OSHKOSH        CLOUDY    54  52  93 CALM      29.77R
$$

WIZ032>034-041-042-053>061-231200-
SOUTHWEST WISCONSIN

CITY           SKY/WX    TMP DP  RH WIND       PRES   REMARKS
LA CROSSE      CLOUDY    54  52  93 E7        29.76S
SPARTA         FOG       48  48 100 CALM      29.78S VSB<1/4
VIROQUA        CLOUDY    51  51 100 MISG      29.76S
BOSCOBEL       CLOUDY    53  52  96 CALM      29.76S FOG
PRAIRIE DU CHI CLOUDY    51  50  97 CALM      29.76S FOG
PLATTEVILLE    CLOUDY    54  54 100 SW9       29.77S
$$

WIZ056-057-062-063-064-067-068-231200-
SOUTH CENTRAL WISCONSIN

CITY           SKY/WX    TMP DP  RH WIND       PRES   REMARKS
REEDSBURG      CLOUDY    52  52 100 CALM      29.75S FOG
BARABOO/DELLS  FOG       52  51  95 CALM      29.76S VSB 1
LONE ROCK      CLOUDY    54  52  93 CALM      29.76S FOG
MINERAL POINT  CLOUDY    55  55 100 SW7       29.77R
MADISON        CLOUDY    56  54  93 S7        29.76S
MIDDLETON      CLOUDY    56  56 100 SW9       29.76S
WATERTOWN      CLOUDY    55  55 100 S7        29.78R
MONROE         CLOUDY    52  52 100 SW8       29.77S
JANESVILLE     MOCLDY    55  54  94 SW7       29.77F
$$

WIZ051-052-058>065-066-070>072-231200-
SOUTHEAST WISCONSIN

CITY           SKY/WX    TMP DP  RH WIND       PRES   REMARKS
MILWAUKEE      MOCLDY    57  54  89 SW6       29.78S
WAUKESHA       MOCLDY    54  52  94 S5        29.79S
MILWAUKEE/TIMM   N/A     54  50  87 CALM      29.80R
RACINE         CLEAR     56  52  86 S6        29.80S
KENOSHA        CLEAR     57  53  86 SW9       29.79F
FOND DU LAC    CLOUDY    56  52  86 CALM      29.78R
SHEBOYGAN      MOCLDY    49  49 100 CALM      29.78R
WEST BEND      CLOUDY    54  54 100 CALM      29.78S
JUNEAU         CLOUDY    54  53  97 SW6       29.79R FOG
$$

LSZ147-162-231200-
LAKE SUPERIOR

STATION/POSITION TIME  TEMP    WIND        PRES    WAVE
                       AIR SEA DIR/SP/G            HT/PER
                 (UTC) (F)     (DEG/KT/KT) (MB)    (FT/S)
W MID LAKE BUOY  1050   40 36  320/  4/  6 1010.9R   0
DEVILS ISLAND    1100   46      30/  5/  5 1010.7R
PORT WING        1040   43     310/  2/  3 1010.5R
SAXON HARBOR     1040   45      CALM  /  2 1009.8S
$$

LMZ867-665-643>646-231200-
LAKE MICHIGAN

STATION/POSITION TIME  TEMP    WIND        PRES    WAVE
                       AIR SEA DIR/SP/G            HT/PER
                 (UTC) (F)     (DEG/KT/KT) (MB)    (FT/S)
CHAMBERS ISLAND  1040   47      10/  4/  4 1009.1S
N MID LAKE BUOY  1050   41 38   60/  2/  2 1011.1R   2/ 5
NORTHPORT PIER   1040   45     300/  1/  2 1009.8R
SISTER BAY       1021   45        CALM       N/A
ALGOMA LAKESHORE 1000           80/  6/  7   N/A
KEWAUNEE LAKESHO 1048   46      50/  4/  5 1008.8S
SHEBOYGAN LAKESH 1100   47     180/  3/  4 1008.5R
PORT WASHINGTON  1040   50      CALM  /  3 1009.8R
ATWATER BUOY     1009   48     140/  8/ 10 1008.5F
MILWAUKEE LAKESH 1050   51     120/  3/  4   N/A
S MID LAKE BUOY  1050   49 45  210/  8/  8 1009.6F   1/ 4
KENOSHA   LAKESH 1100   55     200/  3/  6 1008.8
$$

TC  - TEMPERATURE IN CELSIUS
VSB - VISIBILITY IN STATUTE MILES
WCI - WIND CHILL INDEX
HX  - HEAT INDEX




USA.gov is the U.S. government's official web portal to all federal, state and local government web resources and services.